• In Belarus
  • List of Countries
  • For 7 days
  • Water Temperature
  • Satellite Maps
  • Weather Map
  • Weather Widgets
  • user-avatar
    Login

    Hourly Weather Klagenfurt

    Today, 25 July, Tuesday

    Time Temperature Precipitation Wind Pressure Humidity
    00:00 +11°C° 0 mm 1 mps 683 mmHg 95%
    01:00 +11°C° 0 mm 1 mps 683 mmHg 95%
    02:00 +10°C° 0 mm 1 mps 683 mmHg 94%
    03:00 +10°C° 0 mm 1 mps 683 mmHg 94%
    04:00 +9°C° 0 mm 1 mps 683 mmHg 93%
    05:00 +11°C° 0 mm 1 mps 683 mmHg 91%
    06:00 +12°C° 0 mm 1 mps 683 mmHg 88%
    07:00 +13°C° 0 mm 0 mps 684 mmHg 83%
    08:00 +18°C° 0 mm 1 mps 684 mmHg 70%
    09:00 +20°C° 0 mm 1 mps 685 mmHg 57%
    10:00 +23°C° 0 mm 1 mps 685 mmHg 43%
    11:00 +23°C° 0.1 mm 1 mps 685 mmHg 43%
    12:00 +24°C° 0.1 mm 1 mps 685 mmHg 42%
    13:00 +23°C° 0 mm 1 mps 685 mmHg 43%
    14:00 +23°C° 0.5 mm 1 mps 684 mmHg 47%
    15:00 +22°C° 0.5 mm 1 mps 684 mmHg 52%
    16:00 +21°C° 0.5 mm 1 mps 684 mmHg 57%
    17:00 +19°C° 0.7 mm 1 mps 684 mmHg 66%
    18:00 +18°C° 0.7 mm 1 mps 684 mmHg 74%
    19:00 +15°C° 0.7 mm 1 mps 683 mmHg 83%
    20:00 +13°C° 0.2 mm 1 mps 683 mmHg 85%
    21:00 +12°C° 0.2 mm 1 mps 683 mmHg 87%
    22:00 +11°C° 0.2 mm 1 mps 683 mmHg 89%
    23:00 +10°C° 0 mm 1 mps 683 mmHg 89%

    Tomorrow, 26 July, Wednesday

    Time Temperature Precipitation Wind Pressure Humidity
    00:00 +10°C° 0 mm 1 mps 683 mmHg 90%
    01:00 +10°C° 0 mm 1 mps 683 mmHg 90%
    02:00 +10°C° 0 mm 1 mps 683 mmHg 90%
    03:00 +9°C° 0 mm 1 mps 683 mmHg 90%
    04:00 +9°C° 0 mm 1 mps 683 mmHg 90%
    05:00 +11°C° 0 mm 1 mps 683 mmHg 87%
    06:00 +12°C° 0 mm 1 mps 683 mmHg 84%
    07:00 +13°C° 0 mm 0 mps 683 mmHg 81%
    08:00 +14°C° 0 mm 0 mps 684 mmHg 75%
    09:00 +16°C° 0 mm 0 mps 684 mmHg 68%
    10:00 +18°C° 0 mm 0 mps 684 mmHg 61%
    11:00 +21°C° 0.1 mm 1 mps 685 mmHg 59%
    12:00 +21°C° 0.1 mm 1 mps 685 mmHg 57%
    13:00 +22°C° 0.1 mm 1 mps 685 mmHg 55%
    14:00 +22°C° 0.2 mm 1 mps 685 mmHg 55%
    15:00 +22°C° 0.2 mm 1 mps 685 mmHg 55%
    16:00 +22°C° 0.2 mm 1 mps 685 mmHg 54%
    17:00 +20°C° 0.2 mm 1 mps 685 mmHg 61%
    18:00 +18°C° 0.2 mm 1 mps 685 mmHg 67%
    19:00 +16°C° 0.2 mm 1 mps 685 mmHg 74%
    20:00 +14°C° 0 mm 1 mps 685 mmHg 76%
    21:00 +13°C° 0 mm 1 mps 686 mmHg 78%
    22:00 +12°C° 0 mm 1 mps 686 mmHg 79%
    23:00 +12°C° 0.1 mm 1 mps 686 mmHg 81%

    Day after tomorrow, 27 July, Thursday

    Time Temperature Precipitation Wind Pressure Humidity
    00:00 +11°C° 0.1 mm 1 mps 686 mmHg 82%
    01:00 +11°C° 0.1 mm 1 mps 686 mmHg 84%
    02:00 +11°C° 0.1 mm 1 mps 686 mmHg 85%
    03:00 +10°C° 0.1 mm 1 mps 686 mmHg 86%
    04:00 +10°C° 0.1 mm 1 mps 686 mmHg 87%
    05:00 +11°C° 0 mm 1 mps 687 mmHg 83%
    06:00 +13°C° 0 mm 1 mps 687 mmHg 80%
    07:00 +14°C° 0 mm 1 mps 688 mmHg 76%
    08:00 +18°C° 0 mm 1 mps 688 mmHg 66%
    09:00 +21°C° 0 mm 1 mps 689 mmHg 55%
    10:00 +24°C° 0 mm 1 mps 689 mmHg 44%
    11:00 +25°C° 0 mm 1 mps 689 mmHg 42%
    12:00 +25°C° 0 mm 1 mps 689 mmHg 40%
    13:00 +26°C° 0 mm 1 mps 689 mmHg 38%
    14:00 +25°C° 0 mm 1 mps 688 mmHg 40%
    15:00 +25°C° 0 mm 1 mps 688 mmHg 43%
    16:00 +25°C° 0 mm 1 mps 688 mmHg 45%
    17:00 +23°C° 0 mm 1 mps 688 mmHg 54%
    18:00 +21°C° 0 mm 1 mps 688 mmHg 63%
    19:00 +19°C° 0 mm 1 mps 688 mmHg 72%
    20:00 +18°C° 0 mm 1 mps 688 mmHg 75%
    21:00 +16°C° 0 mm 1 mps 688 mmHg 78%
    22:00 +15°C° 0 mm 1 mps 688 mmHg 80%
    23:00 +14°C° 0 mm 1 mps 688 mmHg 82%

    28 July, Friday

    Time Temperature Precipitation Wind Pressure Humidity
    00:00 +14°C° 0 mm 1 mps 688 mmHg 83%
    01:00 +13°C° 0 mm 1 mps 688 mmHg 84%
    02:00 +13°C° 0 mm 1 mps 688 mmHg 84%
    03:00 +12°C° 0 mm 1 mps 688 mmHg 85%
    04:00 +12°C° 0 mm 1 mps 688 mmHg 85%
    05:00 +14°C° 0 mm 1 mps 688 mmHg 80%
    06:00 +15°C° 0 mm 0 mps 689 mmHg 74%
    07:00 +17°C° 0 mm 0 mps 689 mmHg 69%
    08:00 +19°C° 0 mm 0 mps 690 mmHg 62%
    09:00 +22°C° 0 mm 0 mps 691 mmHg 55%
    10:00 +24°C° 0 mm 0 mps 691 mmHg 47%
    11:00 +27°C° 0.1 mm 1 mps 691 mmHg 47%
    12:00 +27°C° 0.1 mm 1 mps 691 mmHg 46%
    13:00 +27°C° 0.1 mm 2 mps 691 mmHg 46%
    14:00 +27°C° 0.2 mm 2 mps 691 mmHg 49%
    15:00 +26°C° 0.2 mm 1 mps 691 mmHg 52%
    16:00 +26°C° 0.2 mm 1 mps 691 mmHg 55%
    17:00 +24°C° 0.1 mm 1 mps 691 mmHg 63%
    18:00 +23°C° 0.1 mm 1 mps 691 mmHg 70%
    19:00 +21°C° 0.1 mm 1 mps 691 mmHg 78%
    20:00 +20°C° 0 mm 1 mps 691 mmHg 81%
    21:00 +18°C° 0 mm 1 mps 692 mmHg 85%
    22:00 +16°C° 0 mm 1 mps 692 mmHg 88%
    23:00 +16°C° 0 mm 1 mps 692 mmHg 89%

    29 July, Saturday

    Time Temperature Precipitation Wind Pressure Humidity
    00:00 +15°C° 0 mm 1 mps 692 mmHg 90%
    01:00 +15°C° 0 mm 1 mps 692 mmHg 91%
    02:00 +14°C° 0 mm 1 mps 692 mmHg 92%
    03:00 +14°C° 0 mm 1 mps 692 mmHg 92%
    04:00 +14°C° 0 mm 1 mps 692 mmHg 93%
    05:00 +15°C° 0 mm 1 mps 693 mmHg 88%
    06:00 +18°C° 0 mm 1 mps 693 mmHg 84%
    07:00 +19°C° 0 mm 1 mps 693 mmHg 79%
    08:00 +21°C° 0 mm 1 mps 694 mmHg 71%
    09:00 +23°C° 0 mm 1 mps 694 mmHg 62%
    10:00 +25°C° 0 mm 1 mps 694 mmHg 54%
    11:00 +26°C° 0 mm 1 mps 694 mmHg 52%
    12:00 +27°C° 0 mm 1 mps 694 mmHg 49%
    13:00 +28°C° 0 mm 1 mps 694 mmHg 47%
    14:00 +28°C° 0.1 mm 2 mps 694 mmHg 49%
    15:00 +28°C° 0.1 mm 2 mps 694 mmHg 50%
    16:00 +27°C° 0.1 mm 2 mps 694 mmHg 52%
    17:00 +26°C° 0.2 mm 2 mps 693 mmHg 61%
    18:00 +24°C° 0.2 mm 1 mps 693 mmHg 70%
    19:00 +22°C° 0.2 mm 1 mps 693 mmHg 79%
    20:00 +21°C° 0.1 mm 1 mps 693 mmHg 82%
    21:00 +20°C° 0.1 mm 1 mps 693 mmHg 85%
    22:00 +19°C° 0.1 mm 1 mps 693 mmHg 88%
    23:00 +18°C° 0.1 mm 1 mps 693 mmHg 89%

    30 July, Sunday

    Time Temperature Precipitation Wind Pressure Humidity
    00:00 +18°C° 0.1 mm 1 mps 692 mmHg 89%
    01:00 +18°C° 0.1 mm 1 mps 692 mmHg 90%
    02:00 +16°C° 0 mm 1 mps 692 mmHg 90%
    03:00 +16°C° 0 mm 1 mps 692 mmHg 90%
    04:00 +16°C° 0 mm 1 mps 692 mmHg 90%
    05:00 +18°C° 0.3 mm 1 mps 692 mmHg 87%
    06:00 +18°C° 0.3 mm 0 mps 692 mmHg 84%
    07:00 +19°C° 0.3 mm 0 mps 693 mmHg 80%
    08:00 +23°C° 0.2 mm 1 mps 693 mmHg 72%
    09:00 +25°C° 0.2 mm 1 mps 693 mmHg 64%
    10:00 +27°C° 0.2 mm 1 mps 694 mmHg 55%
    11:00 +28°C° 0.5 mm 1 mps 693 mmHg 54%
    12:00 +28°C° 0.5 mm 1 mps 693 mmHg 54%
    13:00 +29°C° 0.5 mm 2 mps 693 mmHg 53%
    14:00 +28°C° 1.1 mm 2 mps 693 mmHg 56%
    15:00 +28°C° 1.1 mm 2 mps 693 mmHg 59%
    16:00 +28°C° 1.1 mm 2 mps 692 mmHg 63%
    17:00 +26°C° 0.7 mm 1 mps 692 mmHg 69%
    18:00 +24°C° 0.7 mm 1 mps 692 mmHg 75%
    19:00 +21°C° 0.7 mm 0 mps 692 mmHg 81%
    20:00 +20°C° 0.1 mm 0 mps 692 mmHg 84%
    21:00 +21°C° 0.1 mm 1 mps 692 mmHg 87%
    22:00 +19°C° 0.1 mm 1 mps 693 mmHg 89%
    23:00 +19°C° 0 mm 1 mps 692 mmHg 90%
    Show more